sat.trackr.live / text

‹ back to catalog

FIRESAT1

NORAD 69886 · 2026-156T

PAYLOAD ACTIVE UNKNOWN

§ Identity

Operator
Country
US
Launch date
2026-07-07
Launch site
AFWTR
Launch vehicle
Mass (kg)
RCS (m²)

External: N2YO · Heavens-Above · Gunter

§ Orbital elements

Epoch: 2026-09-19T23:57:18.260064Z

Period
96.54 min
Inclination
97.7467°
Eccentricity
0.0005860
Mean motion
14.91571231 rev/d
Perigee alt
589.0 km
Apogee alt
597.1 km
Semi-major
6,971.2 km
B*
8.6349e-5
RAAN
162.2120°
Arg perigee
272.6050°
Mean anomaly
87.4498°
Rev number
1,112

§ Raw data

FIRESAT11 69886U 26156T   26262.99812801  .00000810  00000+0  86349-4 0  99952 69886  97.7467 162.2120 0005860 272.6050  87.4498 14.91571231 11123

JSON: /api/v1/satellites/69886 · /tle

For live sub-satellite position, see the globe view (requires WebGL).

§ Visibility from observer

Set your observer location to see the next 7 days of passes ≥ 10°. The values pass through the URL so the page stays shareable.

No JS? Fill the form by hand. The geolocation button needs JavaScript.